Regional Weather Roundup
Issued by NWS

Home | Current Version | Previous Version | Text Only | Print | Product List | Glossary Off
Versions: 1 2 3 4 5 6 7 8 9 10 11 12 13 14 15 16 17 18 19 20 21 22 23 24 25 26 27 28 29 30 31 32 33 34 35 36 37 38 39 40 41 42 43 44 45 46 47 48 49 50

000
ASUS43 KLSX 162007
RWRMO

WEATHER SUMMARY FOR MISSOURI
NATIONAL WEATHER SERVICE SPRINGFIELD MO
300 PM CDT MON OCT 16 2017

NOTE: "FAIR" INDICATES FEW OR NO CLOUDS BELOW 12,000 FEET WITH NO
       SIGNIFICANT WEATHER AND/OR OBSTRUCTIONS TO VISIBILITY.
       CURRENT SKY AND/OR WEATHER CONDITIONS ARE NOT AVAILABLE FOR
       CHILLICOTHE AND FARMINGTON.

MOZ001>031-035>038-043-044-053-054-162100-
...NORTHERN AND WESTERN MISSOURI...

CITY           SKY/WX    TMP DP  RH WIND       PRES   REMARKS
KANSAS CTY INT SUNNY     67  40  37 SW10G23   30.29F
KANSAS C DTWN  SUNNY     70  41  34 S7G17     30.29F
LEE`S SUMMIT   SUNNY     68  40  35 W8        30.31F
ST JOSEPH      SUNNY     72  38  29 SW15G21   30.26F
CHILLICOTHE      N/A     69  37  30 SW8       30.29F
KIRKSVILLE     SUNNY     66  38  35 W8        30.29F

$$
MOZ066>068-077>081-088>096-101>105-162100-
...SOUTHWEST MISSOURI...

CITY           SKY/WX    TMP DP  RH WIND       PRES   REMARKS
SPRINGFIELD    SUNNY     67  34  29 VRB3      30.34F
JOPLIN         SUNNY     67  37  33 CALM      30.35F
BRANSON        SUNNY     64  32  29 E9        30.36F

$$
MOZ032>034-039>042-045>050-055>058-069>072-162100-
...CENTRAL MISSOURI...

CITY           SKY/WX    TMP DP  RH WIND       PRES   REMARKS
COLUMBIA       SUNNY     66  37  34 W10       30.32F
JEFFERSON CITY SUNNY     67  36  31 VRB6      30.32F
ROLLA          SUNNY     65  35  33 NW8       30.34F
SEDALIA        SUNNY     69  39  33 SW6       30.33F
WHITEMAN AFB   SUNNY     67  39  36 SW8G17    30.27F
WARRENSBURG    SUNNY     68  36  30 SW5       30.31F
OSAGE BEACH    SUNNY     65  36  34 VRB5      30.34F

$$
MOZ051-052-059>065-162100-
...EAST CENTRAL MISSOURI...

CITY           SKY/WX    TMP DP  RH WIND       PRES   REMARKS
ST LOUIS INTL  SUNNY     64  39  39 VRB3      30.33F
SPIRIT OF STL  SUNNY     65  36  34 SW6       30.32F
ST CHARLES     SUNNY     67  34  29 W10       30.31F

$$
MOZ072>076-082>087-097>100-106>115-162100-
...SOUTH CENTRAL AND SOUTHEAST MISSOURI...

CITY           SKY/WX    TMP DP  RH WIND       PRES   REMARKS
CAPE GIRARDEAU SUNNY     66  37  34 NE9       30.32F
FARMINGTON     SUNNY     63  34  33 CALM      30.34F HAZE
POPLAR BLUFF   SUNNY     68  35  29 VRB5      30.32F
WEST PLAINS    SUNNY     66  31  27 VRB6      30.34F

$$



USA.gov is the U.S. government's official web portal to all federal, state and local government web resources and services.